FENGYUN 1C DEB, 29929

Orbit data source: Space-Track

FENGYUN 1C DEB, 29929 is space debris in SSO originally from a launch on Mon, 10 May 1999 UTC launched from the Taiyaun Space Center, China (TSC). Fengyun 1C debris stems from the Chinese weather satellite Fengyun-1C, which was intentionally destroyed by a Chinese anti-satellite missile in 2007. This event dramatically increased the amount of space debris, with thousands of trackable fragments posing hazards to satellites and human spaceflight. The Fengyun 1C debris cloud has become a focal point in discussions about space sustainability and the need for international regulations to prevent the creation of new debris.

Loading next visibility...
Identifier
29929, 1999-025JB
Orbit
SSO
Country
Flag of CNCN / PRC
Related business
Manufacturer
Unknown
Mission
Spacecraft
Bus & Motor
Unknown
Mass
Unknown
Launch date (UTC)
1999-05-10 (27 years ago)
Launch vehicle
Unknown
Launch site
Taiyaun Space Center, China (TSC)
Object type
Payload
Rocket body
Debris
Shape & HBR
Unknown shape, 0.1 m
Radar Cross Section
Medium (>0.1 m² and <1 m²)

Expand to show TLE details & history
Last TLE update: 13 hours ago

TLE from 13 hours ago
0 FENGYUN 1C DEB
1 29929U 99025JB  26255.24099229  .00000757  00000-0  48075-3 0  9999
2 29929  98.6200 164.8933 0130841 129.6170  21.2329 14.02436805997888
Epoch: 2026-09-12T05:47Z
TLE epoch observation values (Epoch: 2026-09-12T05:47:01.733Z)
Latitude
28.29158°
Longitude
-88.46144°
Altitude
800.398 km
Speed
7.501 km/s
True Right ascension
23h 18m 11s
True Declination
28° 08' 57"
Sunlit
Object was in full shadow at epoch
Visualization orbit readout
Latitude
Unknown
Longitude
Unknown
Altitude
Unknown
Speed
Unknown
Apparent Right ascension
Unknown
Apparent Declination
Unknown
Sunlit
N/A
Visualization observer readout
Local Sidereal Time
11:41:53
Azimuth
Unknown
Elevation
Unknown
Doppler factor
Unknown
Orbital elements
Apogee altitude
977.546 km
Perigee altitude
787.547 km
Semi-major axis
7,260.683 km
Eccentricity
0.01308
Inclination
98.62°
RAAN
164.8933°
Arg. of periapsis
129.617°
True anomaly
21.78429°
Mean anomaly
21.2329°
Eccentric anomaly
21.50775°
Mean motion
3.50814 °/min
Orbital period
102.62 mins
BSTAR
0.00048075
Loading maneuver chart data...
Computing Atmospheric mass density...

Documentation

Showing up to 5 results
|